User: anonymous   Login
Location: Unspecified
(0.0000°N, 0.0000°E)
Time: 19:00:22
(UTC+01:00)
Language:

Palapa 6 Rocket - Orbit

View from above orbital plane
View from above orbital plane
View from above satellite
View from above satellite

Ground track
Ground track

The orbit data is extracted from the following two-line orbital elements,

1 20571U 90034B   16340.97511292  .00000490  00000-0  22177-4 0  9997
2 20571  22.7469 255.7316 0509073 184.3594 175.2298 14.11814214364693
Epoch (UTC): 05 December 2016 23:24:09
Eccentricity: 0.0509073
inclination: 22.7469°
perigee height: 485 km
apogee height: 1221 km
right ascension of ascending node: 255.7316°
argument of perigee: 184.3594°
revolutions per day: 14.11814214
mean anomaly at epoch: 175.2298°
orbit number at epoch: 36469

The dashed part of the orbit path shows where the satellite is in the earth's shadow,  

DLR